Regional Weather Roundup
Issued by NWS

Home | Current Version | Previous Version | Graphics & Text | Print | Product List | Glossary On
Versions: 1 2 3 4 5 6 7 8 9 10 11 12 13 14 15 16 17 18 19 20 21 22 23 24 25 26 27 28 29 30 31 32 33 34 35 36 37 38 39 40 41 42 43 44 45 46 47 48 49 50
000
ASUS45 KCYS 230410
RWRWY

WYOMING REGIONAL WEATHER ROUNDUP
NATIONAL WEATHER SERVICE CHEYENNE WY
1000 PM MDT FRI AUG 22 2014

NOTE:  "FAIR" INDICATES FEW OR NO CLOUDS BELOW 12,000 FEET
WITH NO SIGNIFICANT WEATHER AND/OR OBSTRUCTIONS TO VISIBILITY.

WYZ001-230500-
YELLOWSTONE NATIONAL PARK

CITY           SKY/WX    TMP DP  RH WIND       PRES   REMARKS
LK YELLOWSTONE   N/A     45  41  86 CALM      30.18F
W YELLOWSTONE  NOT AVBL

$$
WYZ002>013-054>058-071-098>099-230500-
NORTHERN WYOMING

CITY           SKY/WX    TMP DP  RH WIND       PRES   REMARKS
JACKSON        CLOUDY    48  46  93 CALM      30.11F
CODY           CLOUDY    55  52  88 NW6       30.06R
GREYBULL       TSTM      62  57  83 W13       29.99R
WORLAND        LGT RAIN  62  56  80 NW7       29.98R
SHERIDAN       RAIN      59  56  89 SW5       30.02S FOG
BUFFALO        LGT RAIN  56  53  90 NW7       30.06F
GILLETTE       CLOUDY    61  58  90 E14       30.03S
HULETT         CLOUDY    61  57  88 MISG      30.07
NEWCASTLE      FAIR      70  52  52 SE10      30.03

$$
WYZ014>020-022>026-101>103-230500-
CENTRAL WYOMING

CITY           SKY/WX    TMP DP  RH WIND       PRES   REMARKS
BIG PINEY      LGT RAIN  47  45  93 N7        30.16F
PINEDALE       RAIN      46  45  93 N5        30.17F
DUBOIS         CLOUDY    46  43  87 CALM      30.13F
LANDER         CLOUDY    56  54  93 NW8       30.03R
RIVERTON       LGT RAIN  57  51  80 W9        30.04S
CASPER         CLOUDY    62  53  72 NE8       30.03R
DOUGLAS        CLOUDY    65  55  70 SE17G25   30.02R

$$
WYZ021-027>030-104>119-230500-
SOUTHERN WYOMING

CITY           SKY/WX    TMP DP  RH WIND       PRES   REMARKS
EVANSTON       LGT RAIN  48  47  96 E9        30.17F FOG
KEMMERER       RAIN      45  43  93 W8        30.20S
FORT BRIDGER   CLOUDY    48  48  99 S6        30.22R
ROCK SPRINGS   LGT RAIN  48  45  89 NW15      30.17R
DIXON          CLOUDY    59  52  77 NE6       30.10S
RAWLINS        CLOUDY    62  46  55 NW8       30.09R
SARATOGA       CLOUDY    61  46  59 MISG      30.11R
LARAMIE        CLOUDY    55  52  89 SE21G30   30.11F
CHEYENNE         N/A     58  56  93 S14       30.10F
TORRINGTON     CLOUDY    62  61  96 SE7       30.00F
PINE BLUFFS    FAIR      59  55  88 SW3       30.06R

$$



USA.gov is the U.S. government's official web portal to all federal, state and local government web resources and services.